QPF
0.00 0.00 0.00 0.00 0.00 0.00 0.00 0.00 0.00 0.00 0.00 0.00 0.00 0.00 0.00 0.00 0.00 0.00 0.00 0.00 0.00 0.00 0.00 0.01 0.01 0.01 0.01 0.01 0.01 0.01 0.01 0.00 0.00 0.00 0.01 0.02 0.03 0.05 0.07 0.07 0.06 0.04 0.04 0.03
0.00 0.00 0.00 0.00 0.00 0.00 0.00 0.00 0.00 0.00 0.00 0.00 0.00 0.00 0.00 0.00 0.00 0.00 0.00 0.00 0.00 0.00 0.01 0.01 0.01 0.01 0.01 0.02 0.02 0.02 0.02 0.01 0.01 0.01 0.02 0.04 0.06 0.07 0.07 0.07 0.09 0.06 0.04 0.04
0.00 0.00 0.00 0.00 0.00 0.00 0.00 0.00 0.00 0.00 0.00 0.00 0.00 0.00 0.00 0.00 0.00 0.00 0.00 0.00 0.00 0.00 0.01 0.01 0.01 0.01 0.02 0.03 0.03 0.04 0.03 0.03 0.03 0.03 0.06 0.08 0.09 0.07 0.06 0.04 0.04 0.03 0.03 0.03
0.00 0.00 0.00 0.00 0.00 0.00 0.00 0.00 0.00 0.00 0.00 0.00 0.00 0.00 0.00 0.00 0.00 0.00 0.00 0.00 0.00 0.00 0.01 0.01 0.01 0.01 0.02 0.05 0.06 0.06 0.05 0.04 0.05 0.07 0.08 0.09 0.09 0.07 0.05 0.04 0.03 0.02 0.02 0.01
0.00 0.00 0.00 0.00 0.00 0.00 0.00 0.00 0.00 0.00 0.00 0.00 0.00 0.00 0.00 0.00 0.00 0.00 0.00 0.00 0.01 0.01 0.02 0.02 0.01 0.02 0.02 0.04 0.07 0.08 0.08 0.07 0.08 0.08 0.07 0.07 0.07 0.05 0.03 0.03 0.02 0.02 0.01 0.01
0.00 0.00 0.00 0.00 0.00 0.00 0.00 0.00 0.00 0.00 0.00 0.00 0.00 0.00 0.00 0.00 0.00 0.00 0.00 0.00 0.01 0.01 0.02 0.02 0.02 0.03 0.03 0.03 0.04 0.05 0.07 0.08 0.10 0.07 0.05 0.04 0.04 0.04 0.02 0.01 0.01 0.01 0.02 0.01
0.00 0.00 0.00 0.00 0.00 0.00 0.00 0.00 0.00 0.00 0.00 0.00 0.00 0.00 0.00 0.00 0.00 0.00 0.01 0.01 0.01 0.01 0.02 0.02 0.02 0.02 0.02 0.02 0.03 0.03 0.04 0.06 0.06 0.05 0.04 0.03 0.02 0.02 0.02 0.01 0.01 0.01 0.01 0.01
0.00 0.00 0.00 0.00 0.00 0.00 0.00 0.00 0.00 0.00 0.00 0.00 0.00 0.00 0.00 0.00 0.00 0.01 0.01 0.01 0.01 0.02 0.03 0.03 0.02 0.02 0.02 0.02 0.02 0.03 0.03 0.02 0.02 0.02 0.02 0.01 0.01 0.01 0.03 0.05 0.04 0.03 0.02 0.02
0.00 0.00 0.00 0.00 0.00 0.00 0.00 0.00 0.00 0.00 0.00 0.01 0.01 0.00 0.00 0.01 0.01 0.02 0.02 0.02 0.01 0.02 0.03 0.03 0.02 0.03 0.03 0.02 0.02 0.03 0.02 0.01 0.01 0.01 0.01 0.02 0.01 0.02 0.03 0.04 0.04 0.03 0.02 0.01
0.00 0.00 0.00 0.00 0.00 0.00 0.00 0.00 0.01 0.01 0.01 0.01 0.01 0.01 0.01 0.01 0.02 0.02 0.02 0.03 0.03 0.02 0.02 0.03 0.03 0.04 0.03 0.02 0.03 0.02 0.02 0.01 0.01 0.01 0.01 0.01 0.02 0.02 0.03 0.03 0.03 0.02 0.01 0.02
0.01 0.01 0.01 0.00 0.00 0.00 0.00 0.01 0.01 0.02 0.02 0.01 0.01 0.01 0.01 0.01 0.02 0.02 0.02 0.03 0.03 0.03 0.02 0.03 0.04 0.03 0.03 0.02 0.02 0.02 0.02 0.02 0.01 0.01 0.01 0.01 0.01 0.02 0.02 0.03 0.05 0.03 0.03 0.02
0.02 0.01 0.01 0.01 0.01 0.01 0.01 0.01 0.02 0.02 0.02 0.03 0.03 0.02 0.02 0.01 0.01 0.02 0.02 0.03 0.04 0.04 0.03 0.03 0.03 0.02 0.02 0.02 0.02 0.02 0.01 0.02 0.01 0.01 0.02 0.01 0.01 0.02 0.02 0.02 0.04 0.03 0.02 0.01
0.01 0.02 0.03 0.03 0.02 0.01 0.01 0.02 0.02 0.02 0.02 0.02 0.02 0.02 0.02 0.02 0.01 0.01 0.02 0.02 0.04 0.05 0.05 0.03 0.02 0.02 0.02 0.02 0.02 0.02 0.01 0.02 0.01 0.01 0.02 0.02 0.02 0.02 0.02 0.02 0.03 0.03 0.03 0.03
0.01 0.03 0.04 0.04 0.02 0.01 0.01 0.01 0.02 0.04 0.05 0.04 0.03 0.02 0.02 0.02 0.01 0.01 0.01 0.03 0.05 0.07 0.06 0.04 0.02 0.02 0.03 0.02 0.02 0.02 0.02 0.02 0.02 0.01 0.02 0.01 0.01 0.01 0.01 0.02 0.02 0.02 0.03 0.04
0.02 0.03 0.03 0.03 0.03 0.03 0.02 0.02 0.02 0.03 0.04 0.05 0.04 0.03 0.02 0.01 0.01 0.01 0.02 0.04 0.05 0.05 0.05 0.05 0.04 0.02 0.02 0.01 0.01 0.01 0.02 0.02 0.01 0.01 0.02 0.01 0.01 0.01 0.01 0.02 0.03 0.04 0.04 0.03
0.03 0.03 0.03 0.02 0.03 0.04 0.03 0.02 0.02 0.02 0.02 0.02 0.02 0.02 0.02 0.02 0.02 0.02 0.02 0.03 0.03 0.04 0.04 0.04 0.04 0.03 0.03 0.02 0.01 0.01 0.01 0.02 0.02 0.01 0.01 0.01 0.01 0.01 0.01 0.01 0.02 0.03 0.04 0.03
0.03 0.04 0.03 0.02 0.02 0.03 0.03 0.03 0.02 0.02 0.02 0.02 0.02 0.02 0.02 0.02 0.02 0.01 0.01 0.01 0.01 0.02 0.02 0.02 0.02 0.02 0.02 0.02 0.01 0.01 0.01 0.02 0.02 0.01 0.01 0.00 0.00 0.01 0.01 0.01 0.01 0.01 0.02 0.01
0.02 0.04 0.04 0.03 0.02 0.02 0.02 0.02 0.02 0.02 0.02 0.02 0.02 0.02 0.02 0.01 0.01 0.01 0.01 0.01 0.01 0.01 0.01 0.02 0.02 0.02 0.02 0.02 0.02 0.02 0.01 0.01 0.01 0.01 0.00 0.00 0.00 0.00 0.00 0.00 0.00 0.00 0.01 0.01
0.02 0.03 0.03 0.03 0.02 0.03 0.02 0.02 0.02 0.01 0.01 0.01 0.01 0.01 0.01 0.01 0.01 0.00 0.00 0.00 0.01 0.01 0.01 0.01 0.02 0.02 0.01 0.01 0.01 0.01 0.01 0.01 0.00 0.00 0.01 0.01 0.00 0.00 0.00 0.00 0.00 0.00 0.01 0.01
0.01 0.02 0.02 0.02 0.02 0.02 0.02 0.01 0.01 0.01 0.01 0.01 0.01 0.01 0.00 0.01 0.01 0.01 0.01 0.01 0.01 0.01 0.01 0.01 0.01 0.01 0.01 0.01 0.02 0.01 0.01 0.01 0.01 0.01 0.01 0.01 0.00 0.00 0.00 0.00 0.00 0.00 0.01 0.01
0.01 0.01 0.01 0.02 0.02 0.02 0.02 0.01 0.01 0.01 0.01 0.01 0.01 0.01 0.01 0.01 0.01 0.02 0.02 0.02 0.02 0.02 0.02 0.02 0.01 0.01 0.01 0.02 0.02 0.02 0.02 0.02 0.02 0.02 0.01 0.01 0.01 0.01 0.00 0.01 0.01 0.01 0.01 0.01
0.01 0.01 0.01 0.01 0.01 0.01 0.01 0.01 0.01 0.01 0.01 0.01 0.01 0.01 0.01 0.01 0.01 0.02 0.02 0.02 0.02 0.02 0.01 0.01 0.02 0.02 0.01 0.01 0.01 0.01 0.01 0.02 0.02 0.02 0.01 0.01 0.01 0.01 0.01 0.01 0.01 0.01 0.01 0.01
0.01 0.01 0.01 0.01 0.01 0.01 0.01 0.01 0.01 0.01 0.01 0.02 0.02 0.01 0.01 0.01 0.01 0.02 0.02 0.02 0.02 0.01 0.01 0.01 0.01 0.02 0.01 0.01 0.01 0.01 0.01 0.01 0.01 0.01 0.01 0.01 0.01 0.01 0.02 0.02 0.02 0.02 0.02 0.01
0.01 0.01 0.01 0.01 0.01 0.01 0.01 0.01 0.01 0.01 0.01 0.01 0.01 0.02 0.01 0.02 0.02 0.02 0.02 0.02 0.02 0.02 0.01 0.01 0.01 0.01 0.01 0.01 0.01 0.01 0.01 0.01 0.01 0.01 0.01 0.01 0.01 0.01 0.01 0.01 0.01 0.01 0.01 0.01
0.02 0.02 0.01 0.01 0.01 0.01 0.02 0.02 0.02 0.01 0.01 0.01 0.01 0.02 0.02 0.02 0.02 0.02 0.02 0.02 0.02 0.02 0.02 0.03 0.03 0.03 0.02 0.02 0.02 0.01 0.01 0.01 0.01 0.01 0.02 0.01 0.01 0.01 0.01 0.01 0.01 0.01 0.01 0.01
0.02 0.02 0.02 0.02 0.01 0.01 0.02 0.02 0.02 0.01 0.01 0.02 0.02 0.02 0.03 0.02 0.02 0.02 0.02 0.02 0.02 0.02 0.02 0.03 0.02 0.02 0.01 0.01 0.01 0.01 0.01 0.01 0.01 0.01 0.01 0.01 0.01 0.01 0.01 0.01 0.02 0.02 0.02 0.02
0.03 0.02 0.02 0.02 0.01 0.02 0.02 0.02 0.02 0.02 0.02 0.02 0.02 0.02 0.02 0.02 0.02 0.02 0.02 0.01 0.01 0.01 0.01 0.01 0.01 0.01 0.01 0.01 0.01 0.01 0.01 0.01 0.01 0.01 0.01 0.01 0.01 0.01 0.01 0.02 0.03 0.03 0.03 0.03
MSLP
1013.04 1013.31 1013.49 1013.57 1013.53 1013.39 1013.15 1012.83 1012.45 1012.05 1011.68 1011.36 1011.15 1011.06 1011.13 1011.34 1011.70 1012.17 1012.71 1013.29 1013.86 1014.39 1014.85 1015.25 1015.58 1015.86 1016.09 1016.30 1016.49 1016.68 1016.86 1017.03 1017.20 1017.34 1017.47 1017.58 1017.68 1017.76 1017.84 1017.92 1018.02 1018.14 1018.29 1018.47
1013.11 1013.32 1013.39 1013.32 1013.12 1012.81 1012.42 1012.00 1011.57 1011.18 1010.85 1010.63 1010.52 1010.55 1010.70 1010.98 1011.36 1011.82 1012.34 1012.87 1013.40 1013.90 1014.36 1014.78 1015.16 1015.51 1015.82 1016.10 1016.37 1016.63 1016.87 1017.10 1017.31 1017.52 1017.71 1017.89 1018.06 1018.22 1018.37 1018.51 1018.65 1018.78 1018.92 1019.06
1013.06 1013.20 1013.17 1012.98 1012.65 1012.22 1011.74 1011.26 1010.83 1010.47 1010.22 1010.10 1010.10 1010.22 1010.45 1010.76 1011.14 1011.56 1012.01 1012.47 1012.92 1013.37 1013.81 1014.24 1014.66 1015.06 1015.45 1015.81 1016.16 1016.49 1016.79 1017.08 1017.35 1017.61 1017.86 1018.12 1018.37 1018.62 1018.86 1019.08 1019.27 1019.44 1019.59 1019.71
1012.84 1012.91 1012.81 1012.53 1012.13 1011.64 1011.13 1010.65 1010.25 1009.97 1009.82 1009.80 1009.90 1010.11 1010.39 1010.71 1011.06 1011.41 1011.77 1012.14 1012.50 1012.88 1013.28 1013.70 1014.14 1014.59 1015.04 1015.48 1015.90 1016.29 1016.65 1016.98 1017.30 1017.61 1017.92 1018.24 1018.57 1018.91 1019.23 1019.53 1019.80 1020.02 1020.19 1020.31
1012.45 1012.47 1012.32 1012.01 1011.58 1011.09 1010.60 1010.18 1009.86 1009.68 1009.64 1009.74 1009.94 1010.21 1010.52 1010.84 1011.14 1011.42 1011.68 1011.93 1012.20 1012.51 1012.86 1013.26 1013.70 1014.18 1014.68 1015.18 1015.65 1016.09 1016.49 1016.86 1017.21 1017.55 1017.90 1018.26 1018.65 1019.05 1019.44 1019.82 1020.15 1020.43 1020.63 1020.77
1011.93 1011.92 1011.76 1011.45 1011.05 1010.62 1010.21 1009.88 1009.68 1009.62 1009.70 1009.90 1010.19 1010.52 1010.84 1011.14 1011.39 1011.58 1011.75 1011.90 1012.08 1012.30 1012.59 1012.97 1013.41 1013.91 1014.44 1014.97 1015.48 1015.95 1016.38 1016.76 1017.11 1017.46 1017.81 1018.19 1018.60 1019.03 1019.47 1019.89 1020.28 1020.60 1020.84 1021.01
1011.37 1011.35 1011.21 1010.95 1010.62 1010.28 1009.99 1009.79 1009.71 1009.78 1009.98 1010.28 1010.64 1011.01 1011.34 1011.61 1011.80 1011.92 1012.00 1012.06 1012.15 1012.30 1012.54 1012.87 1013.30 1013.80 1014.34 1014.89 1015.42 1015.90 1016.32 1016.70 1017.04 1017.36 1017.70 1018.06 1018.45 1018.88 1019.32 1019.76 1020.17 1020.52 1020.80 1021.00
1010.87 1010.87 1010.77 1010.59 1010.37 1010.15 1009.99 1009.92 1009.98 1010.17 1010.47 1010.84 1011.25 1011.64 1011.97 1012.21 1012.35 1012.41 1012.41 1012.40 1012.41 1012.50 1012.69 1012.98 1013.38 1013.87 1014.40 1014.94 1015.46 1015.92 1016.33 1016.68 1016.99 1017.27 1017.56 1017.88 1018.23 1018.62 1019.03 1019.45 1019.85 1020.21 1020.51 1020.74
1010.53 1010.57 1010.55 1010.47 1010.36 1010.27 1010.24 1010.30 1010.48 1010.76 1011.13 1011.56 1011.99 1012.39 1012.70 1012.91 1013.01 1013.02 1012.96 1012.89 1012.84 1012.87 1013.01 1013.26 1013.62 1014.07 1014.57 1015.08 1015.57 1016.00 1016.38 1016.69 1016.95 1017.18 1017.41 1017.66 1017.94 1018.27 1018.63 1019.01 1019.38 1019.73 1020.03 1020.28
1010.43 1010.53 1010.59 1010.61 1010.63 1010.66 1010.75 1010.91 1011.17 1011.51 1011.92 1012.37 1012.81 1013.19 1013.48 1013.66 1013.72 1013.69 1013.59 1013.47 1013.38 1013.37 1013.45 1013.64 1013.95 1014.34 1014.79 1015.25 1015.69 1016.08 1016.41 1016.67 1016.88 1017.05 1017.22 1017.40 1017.61 1017.87 1018.16 1018.48 1018.81 1019.14 1019.44 1019.70
1010.59 1010.75 1010.90 1011.03 1011.15 1011.29 1011.46 1011.70 1012.00 1012.37 1012.79 1013.22 1013.63 1013.98 1014.24 1014.39 1014.43 1014.37 1014.24 1014.09 1013.97 1013.91 1013.94 1014.07 1014.30 1014.62 1014.99 1015.39 1015.76 1016.09 1016.36 1016.57 1016.73 1016.85 1016.96 1017.08 1017.23 1017.43 1017.66 1017.93 1018.21 1018.51 1018.80 1019.08
1010.98 1011.22 1011.45 1011.66 1011.87 1012.08 1012.31 1012.57 1012.89 1013.25 1013.64 1014.03 1014.40 1014.71 1014.93 1015.05 1015.07 1014.99 1014.86 1014.69 1014.54 1014.44 1014.41 1014.48 1014.63 1014.86 1015.14 1015.44 1015.72 1015.98 1016.19 1016.34 1016.45 1016.53 1016.60 1016.68 1016.79 1016.93 1017.12 1017.35 1017.61 1017.88 1018.17 1018.46
1011.53 1011.83 1012.13 1012.41 1012.67 1012.93 1013.18 1013.45 1013.75 1014.07 1014.41 1014.74 1015.06 1015.32 1015.50 1015.60 1015.60 1015.53 1015.39 1015.22 1015.05 1014.91 1014.83 1014.82 1014.88 1015.01 1015.18 1015.38 1015.57 1015.74 1015.88 1015.98 1016.04 1016.09 1016.13 1016.18 1016.26 1016.38 1016.55 1016.75 1017.00 1017.27 1017.55 1017.85
1012.14 1012.50 1012.85 1013.17 1013.46 1013.73 1013.98 1014.23 1014.49 1014.76 1015.04 1015.31 1015.56 1015.78 1015.93 1016.01 1016.01 1015.94 1015.81 1015.64 1015.46 1015.30 1015.17 1015.09 1015.06 1015.08 1015.14 1015.22 1015.31 1015.39 1015.45 1015.49 1015.51 1015.53 1015.55 1015.58 1015.65 1015.76 1015.92 1016.11 1016.35 1016.62 1016.92 1017.23
1012.74 1013.13 1013.50 1013.85 1014.15 1014.42 1014.65 1014.87 1015.08 1015.29 1015.50 1015.71 1015.91 1016.08 1016.20 1016.27 1016.27 1016.21 1016.10 1015.94 1015.76 1015.58 1015.41 1015.26 1015.15 1015.08 1015.03 1015.00 1014.99 1014.97 1014.96 1014.93 1014.91 1014.89 1014.88 1014.90 1014.96 1015.06 1015.20 1015.40 1015.64 1015.91 1016.21 1016.53
1013.26 1013.66 1014.04 1014.39 1014.69 1014.94 1015.15 1015.33 1015.49 1015.65 1015.80 1015.95 1016.10 1016.23 1016.33 1016.39 1016.40 1016.35 1016.26 1016.12 1015.94 1015.75 1015.56 1015.36 1015.19 1015.03 1014.89 1014.77 1014.66 1014.55 1014.46 1014.37 1014.29 1014.22 1014.18 1014.17 1014.21 1014.28 1014.41 1014.59 1014.81 1015.07 1015.37 1015.68
1013.69 1014.09 1014.46 1014.80 1015.09 1015.32 1015.50 1015.64 1015.76 1015.87 1015.97 1016.07 1016.17 1016.26 1016.34 1016.38 1016.39 1016.36 1016.28 1016.16 1016.00 1015.82 1015.61 1015.39 1015.18 1014.96 1014.76 1014.56 1014.37 1014.20 1014.03 1013.87 1013.73 1013.61 1013.52 1013.46 1013.44 1013.47 1013.55 1013.68 1013.86 1014.09 1014.35 1014.65
1014.05 1014.43 1014.79 1015.11 1015.37 1015.58 1015.74 1015.85 1015.93 1015.99 1016.05 1016.10 1016.16 1016.21 1016.25 1016.28 1016.28 1016.26 1016.19 1016.09 1015.94 1015.77 1015.57 1015.36 1015.12 1014.89 1014.65 1014.41 1014.18 1013.95 1013.72 1013.50 1013.30 1013.11 1012.94 1012.81 1012.72 1012.66 1012.66 1012.71 1012.82 1012.98 1013.19 1013.44
1014.39 1014.74 1015.06 1015.36 1015.60 1015.78 1015.91 1016.00 1016.05 1016.07 1016.09 1016.09 1016.10 1016.10 1016.11 1016.10 1016.08 1016.04 1015.98 1015.89 1015.76 1015.61 1015.44 1015.25 1015.04 1014.82 1014.58 1014.34 1014.09 1013.83 1013.57 1013.31 1013.04 1012.78 1012.53 1012.30 1012.10 1011.93 1011.82 1011.75 1011.75 1011.80 1011.93 1012.12
1014.74 1015.05 1015.34 1015.60 1015.81 1015.97 1016.07 1016.13 1016.15 1016.14 1016.11 1016.07 1016.02 1015.97 1015.92 1015.87 1015.81 1015.75 1015.67 1015.58 1015.48 1015.36 1015.23 1015.08 1014.91 1014.74 1014.54 1014.33 1014.10 1013.85 1013.57 1013.28 1012.96 1012.63 1012.30 1011.96 1011.64 1011.35 1011.09 1010.89 1010.75 1010.69 1010.71 1010.82
1015.12 1015.38 1015.63 1015.85 1016.02 1016.15 1016.23 1016.26 1016.25 1016.20 1016.12 1016.03 1015.92 1015.81 1015.70 1015.59 1015.49 1015.39 1015.29 1015.20 1015.12 1015.03 1014.94 1014.85 1014.75 1014.64 1014.51 1014.36 1014.18 1013.96 1013.69 1013.39 1013.05 1012.66 1012.25 1011.82 1011.38 1010.96 1010.57 1010.22 1009.95 1009.75 1009.66 1009.68
1015.51 1015.72 1015.92 1016.09 1016.22 1016.32 1016.37 1016.37 1016.32 1016.24 1016.12 1015.97 1015.81 1015.64 1015.46 1015.30 1015.14 1015.01 1014.89 1014.79 1014.72 1014.67 1014.63 1014.60 1014.57 1014.54 1014.49 1014.41 1014.29 1014.12 1013.89 1013.60 1013.24 1012.83 1012.36 1011.85 1011.32 1010.79 1010.28 1009.81 1009.42 1009.11 1008.91 1008.84
1015.87 1016.02 1016.16 1016.28 1016.37 1016.43 1016.44 1016.41 1016.34 1016.22 1016.07 1015.89 1015.68 1015.45 1015.23 1015.02 1014.82 1014.65 1014.51 1014.41 1014.34 1014.32 1014.32 1014.36 1014.40 1014.44 1014.47 1014.46 1014.41 1014.29 1014.10 1013.84 1013.49 1013.07 1012.58 1012.02 1011.44 1010.83 1010.24 1009.69 1009.20 1008.81 1008.53 1008.39
1016.13 1016.22 1016.30 1016.37 1016.41 1016.43 1016.42 1016.37 1016.28 1016.14 1015.97 1015.76 1015.53 1015.28 1015.03 1014.78 1014.55 1014.36 1014.21 1014.10 1014.05 1014.05 1014.09 1014.16 1014.25 1014.35 1014.44 1014.49 1014.49 1014.43 1014.28 1014.05 1013.73 1013.32 1012.83 1012.27 1011.67 1011.04 1010.42 1009.83 1009.31 1008.87 1008.55 1008.36
1016.24 1016.27 1016.30 1016.32 1016.33 1016.32 1016.29 1016.23 1016.13 1016.00 1015.83 1015.62 1015.39 1015.14 1014.88 1014.63 1014.40 1014.20 1014.04 1013.94 1013.89 1013.90 1013.96 1014.05 1014.17 1014.30 1014.42 1014.50 1014.53 1014.50 1014.39 1014.19 1013.89 1013.51 1013.05 1012.52 1011.95 1011.35 1010.75 1010.18 1009.67 1009.23 1008.91 1008.71
1016.18 1016.16 1016.14 1016.12 1016.11 1016.09 1016.06 1016.01 1015.93 1015.82 1015.68 1015.50 1015.29 1015.07 1014.83 1014.60 1014.38 1014.19 1014.04 1013.95 1013.90 1013.91 1013.96 1014.06 1014.17 1014.30 1014.41 1014.49 1014.53 1014.50 1014.40 1014.22 1013.96 1013.61 1013.20 1012.73 1012.22 1011.69 1011.16 1010.65 1010.20 1009.81 1009.52 1009.35
1015.96 1015.90 1015.85 1015.82 1015.80 1015.79 1015.78 1015.75 1015.71 1015.65 1015.55 1015.43 1015.27 1015.09 1014.90 1014.71 1014.52 1014.35 1014.22 1014.12 1014.08 1014.07 1014.10 1014.17 1014.25 1014.34 1014.42 1014.47 1014.48 1014.43 1014.33 1014.16 1013.92 1013.61 1013.26 1012.86 1012.43 1012.00 1011.57 1011.16 1010.80 1010.50 1010.27 1010.14
Thickness
5796 5804 5806 5803 5803 5804 5804 5809 5805 5810 5814 5824 5830 5830 5829 5827 5825 5821 5817 5814 5811 5808 5804 5800 5796 5791 5787 5783 5780 5775 5769 5763 5758 5753 5748 5743 5739 5735 5733 5731 5728 5725 5722 5719
5779 5791 5796 5794 5800 5801 5802 5807 5810 5812 5814 5831 5831 5830 5825 5823 5820 5816 5814 5812 5810 5807 5803 5798 5794 5789 5785 5781 5776 5772 5766 5761 5756 5750 5745 5741 5737 5732 5727 5724 5721 5718 5716 5713
5768 5781 5780 5774 5792 5797 5799 5807 5809 5805 5815 5823 5820 5819 5818 5818 5817 5815 5813 5811 5808 5805 5802 5798 5793 5788 5782 5778 5774 5767 5762 5757 5752 5747 5742 5738 5734 5728 5723 5719 5715 5711 5708 5706
5767 5763 5747 5782 5806 5806 5801 5804 5812 5813 5816 5818 5817 5817 5818 5818 5815 5813 5812 5809 5806 5804 5800 5797 5793 5787 5781 5776 5770 5763 5757 5752 5748 5743 5739 5734 5728 5722 5717 5713 5708 5704 5701 5699
5760 5754 5760 5776 5791 5797 5792 5792 5807 5808 5809 5812 5815 5814 5811 5814 5814 5811 5810 5807 5805 5803 5800 5794 5788 5782 5776 5770 5765 5759 5753 5747 5743 5739 5734 5728 5722 5716 5711 5707 5702 5698 5695 5692
5753 5748 5748 5772 5792 5799 5792 5779 5801 5803 5802 5804 5805 5802 5803 5806 5808 5808 5806 5803 5800 5798 5793 5787 5782 5778 5770 5764 5758 5753 5749 5743 5737 5732 5727 5722 5716 5711 5706 5701 5697 5693 5688 5685
5747 5747 5762 5778 5786 5786 5765 5774 5795 5799 5798 5798 5797 5799 5800 5802 5800 5800 5798 5796 5793 5790 5784 5779 5776 5771 5764 5758 5752 5748 5743 5737 5732 5726 5721 5716 5711 5705 5700 5695 5690 5686 5681 5677
5744 5741 5748 5769 5776 5772 5772 5783 5788 5790 5792 5791 5790 5791 5792 5791 5790 5789 5788 5786 5785 5780 5775 5771 5768 5763 5757 5751 5747 5742 5736 5730 5725 5720 5716 5710 5704 5699 5694 5689 5684 5679 5674 5670
5743 5745 5751 5762 5766 5770 5774 5774 5778 5781 5783 5783 5780 5779 5779 5779 5779 5779 5778 5777 5775 5772 5767 5762 5759 5756 5750 5745 5740 5734 5729 5723 5717 5713 5708 5704 5698 5693 5688 5683 5680 5676 5671 5666
5731 5738 5745 5751 5757 5761 5764 5766 5769 5772 5774 5774 5771 5770 5768 5768 5768 5768 5767 5766 5765 5762 5758 5753 5750 5747 5743 5739 5734 5728 5721 5715 5710 5705 5700 5695 5691 5688 5683 5679 5674 5670 5665 5661
5720 5727 5734 5739 5744 5750 5754 5758 5760 5763 5764 5763 5761 5759 5758 5757 5757 5757 5757 5757 5756 5752 5748 5744 5741 5738 5735 5731 5726 5720 5714 5708 5704 5699 5693 5687 5682 5677 5674 5669 5666 5662 5659 5655
5714 5721 5727 5727 5734 5740 5742 5745 5748 5749 5750 5752 5752 5748 5748 5747 5747 5746 5746 5745 5744 5741 5738 5735 5732 5728 5725 5721 5717 5713 5707 5701 5697 5692 5686 5681 5674 5666 5658 5657 5651 5648 5645 5643
5709 5715 5718 5720 5725 5731 5733 5736 5738 5739 5739 5739 5740 5739 5737 5735 5735 5735 5735 5733 5732 5730 5728 5725 5722 5718 5715 5712 5708 5704 5700 5695 5691 5685 5679 5674 5668 5663 5656 5646 5640 5637 5634 5631
5699 5702 5704 5709 5714 5719 5721 5724 5727 5727 5727 5727 5727 5727 5727 5726 5725 5724 5723 5722 5721 5719 5717 5715 5711 5708 5705 5702 5699 5695 5692 5686 5682 5677 5672 5667 5662 5658 5653 5648 5641 5634 5625 5621
5689 5694 5698 5701 5704 5707 5710 5712 5713 5713 5714 5713 5715 5715 5715 5715 5714 5713 5712 5711 5710 5708 5706 5703 5700 5697 5695 5692 5689 5686 5683 5678 5674 5669 5664 5660 5656 5652 5647 5642 5637 5631 5625 5615
5679 5685 5688 5690 5692 5696 5699 5701 5701 5701 5703 5703 5703 5704 5704 5705 5704 5703 5702 5700 5698 5696 5694 5692 5689 5687 5685 5683 5679 5676 5672 5667 5663 5660 5656 5651 5648 5644 5640 5635 5631 5627 5622 5616
5668 5672 5676 5679 5683 5686 5690 5692 5693 5692 5693 5693 5693 5694 5694 5693 5692 5692 5691 5689 5688 5686 5685 5682 5679 5677 5675 5673 5670 5668 5663 5657 5652 5651 5648 5644 5640 5636 5632 5628 5624 5620 5616 5610
5664 5668 5672 5675 5676 5677 5679 5682 5683 5683 5682 5683 5684 5684 5684 5683 5683 5682 5680 5679 5677 5675 5674 5673 5670 5667 5665 5663 5661 5659 5655 5651 5647 5645 5641 5637 5633 5629 5626 5621 5617 5613 5608 5602
5657 5660 5663 5666 5669 5670 5671 5671 5672 5673 5674 5674 5674 5673 5674 5674 5673 5672 5671 5668 5667 5665 5665 5664 5658 5657 5655 5652 5650 5649 5647 5644 5640 5637 5633 5626 5624 5622 5618 5614 5610 5606 5602 5598
5647 5651 5654 5657 5660 5661 5662 5663 5664 5664 5665 5666 5665 5664 5664 5664 5664 5662 5661 5660 5660 5660 5657 5654 5650 5649 5647 5644 5641 5642 5640 5636 5633 5629 5625 5621 5617 5614 5610 5606 5603 5599 5595 5591
5639 5642 5644 5646 5648 5651 5652 5654 5655 5655 5657 5657 5657 5656 5656 5656 5655 5653 5652 5651 5650 5649 5646 5641 5642 5641 5639 5635 5631 5633 5631 5628 5624 5621 5617 5614 5610 5606 5602 5598 5595 5591 5588 5584
5629 5633 5635 5637 5639 5640 5643 5645 5646 5647 5648 5648 5648 5648 5646 5645 5645 5644 5644 5643 5641 5636 5636 5635 5635 5631 5629 5625 5626 5625 5623 5620 5617 5613 5609 5606 5602 5598 5595 5591 5588 5585 5581 5578
5619 5622 5624 5627 5629 5631 5633 5635 5637 5638 5638 5638 5638 5637 5637 5637 5637 5636 5634 5634 5632 5627 5628 5627 5623 5618 5615 5617 5618 5616 5614 5611 5608 5605 5601 5597 5594 5591 5588 5585 5582 5579 5576 5572
5608 5611 5614 5617 5620 5621 5623 5626 5627 5627 5628 5628 5628 5628 5628 5627 5627 5628 5627 5622 5619 5616 5618 5614 5610 5608 5606 5610 5609 5607 5605 5602 5599 5596 5593 5590 5586 5583 5581 5578 5576 5573 5569 5565
5600 5603 5605 5608 5610 5613 5613 5615 5616 5617 5618 5619 5619 5619 5620 5620 5619 5618 5616 5613 5608 5607 5607 5603 5600 5598 5600 5602 5600 5598 5596 5594 5591 5589 5585 5583 5580 5578 5575 5572 5569 5566 5562 5559
5594 5596 5598 5599 5601 5603 5605 5607 5607 5608 5609 5609 5609 5610 5610 5610 5609 5608 5605 5603 5601 5599 5599 5596 5594 5591 5593 5593 5591 5589 5587 5584 5582 5580 5578 5576 5574 5571 5568 5564 5561 5558 5555 5551
5587 5589 5590 5592 5594 5596 5598 5598 5599 5599 5600 5600 5600 5600 5600 5600 5599 5599 5597 5596 5594 5593 5592 5590 5589 5587 5587 5585 5584 5582 5580 5578 5576 5574 5572 5569 5566 5564 5560 5556 5554 5551 5548 5544